Regional Weather Roundup
Issued by NWS

Home | Current Version | Previous Version | Graphics & Text | Print | Product List | Glossary On
Versions: 1 2 3 4 5 6 7 8 9 10 11 12 13 14 15 16 17 18 19 20 21 22 23 24 25 26 27 28 29 30 31 32 33 34 35 36 37 38 39 40 41 42 43 44 45 46 47 48 49 50
000
ASUS43 KIND 041359
RWRIN

WEATHER ROUNDUP FOR INDIANA
NATIONAL WEATHER SERVICE INDIANAPOLIS IN
900 AM EST SUN DEC 04 2016

NOTE: "FAIR" INDICATES FEW OR NO CLOUDS BELOW 12,000 FEET WITH NO
SIGNIFICANT WEATHER AND/OR OBSTRUCTIONS TO VISIBILITY.

* - STATION DOES NOT REPORT WEATHER SUCH AS PRECIPITATION OR FOG.

+ - STATION NOT QUALITY CONTROLLED BY THE NATIONAL WEATHER SERVICE.
    USE DATA WITH CAUTION...ESPECIALLY DEWPOINT AND RELATIVE
    HUMIDITY OBSERVATIONS.

INZ001>003-010>013-019-020-041500-
NORTHWEST INDIANA

CITY           SKY/WX    TMP DP  RH WIND       PRES   REMARKS
GARY /AIRPORT/ CLOUDY    34  28  80 SE3       30.18S
LA PORTE +     CLOUDY    33  33 100 E5        30.17S WCI  28

$$

LMZ046-743>745-041500-
SOUTHERN LAKE MICHIGAN

STATION/POSITION TIME  TEMP    WIND        PRES    WAVE
                       AIR SEA DIR/SP/G            HT
                 (UTC) (F)     (DEG/KT/KT) (MB)    (FT)
BURNS HARBOR     1340   33     160/  5/ 10 1022.0F

$$

INZ004-005-014>016-021>024-041500-
NORTH CENTRAL INDIANA

CITY           SKY/WX    TMP DP  RH WIND       PRES   REMARKS
ELKHART        CLOUDY    32  27  80 E3        30.18F
GOSHEN         CLOUDY    33  26  75 SE6       30.18S WCI  28
SOUTH BEND     CLOUDY    32  26  78 E5        30.18F WCI  27

$$

INZ006>009-017-018-025>027-041500-
NORTHEAST INDIANA

CITY           SKY/WX    TMP DP  RH WIND       PRES   REMARKS
ANGOLA *+      CLOUDY    32  27  80 SE5       30.18S WCI  27
FORT WAYNE     CLOUDY    33  28  81 SE7       30.19S WCI  27
KENDALLVILLE + CLOUDY    32  26  78 SE7       30.18S WCI  26

$$

INZ028-029-035-036-043>045-051>053-041500-
WEST CENTRAL INDIANA

CITY           SKY/WX    TMP DP  RH WIND       PRES   REMARKS
CRAWFORDSVL +  CLOUDY    33  31  92 E7        30.12F WCI  27
GREENCASTLE +  CLOUDY    34  32  93 E6        30.12F WCI  29
LAFAYETTE      CLOUDY    33  29  85 E8        30.15F WCI  26
TERRE HAUTE    CLOUDY    36  31  82 E6        30.12F

$$

INZ030>032-037>040-046>048-054>057-064-065-041500-
CENTRAL INDIANA

CITY           SKY/WX    TMP DP  RH WIND       PRES   REMARKS
COLUMBUS       CLOUDY    36  32  87 E8        30.14F
FRANKFORT +    CLOUDY    36  32  87 E6        30.15F
GREENWOOD *+   CLOUDY    36  32  85 E6        30.15F
INDIANAPOLIS   CLOUDY    36  30  79 E8        30.13F
-EAGLE CREEK   CLOUDY    36  29  75 E7        30.14F
KOKOMO +       CLOUDY    33  31  92 E7        30.16F WCI  27
SHELBYVILLE    CLOUDY    37  31  78 E8        30.14F

$$

INZ033-034-041-042-049-050-058-059-041500-
EAST CENTRAL INDIANA

CITY           SKY/WX    TMP DP  RH WIND       PRES   REMARKS
MUNCIE         CLOUDY    37  30  75 S7        30.17R

$$

INZ060-061-067>069-081>083-085>088-041500-
SOUTHWEST INDIANA

CITY           SKY/WX    TMP DP  RH WIND       PRES   REMARKS
EVANSVILLE     CLOUDY    40  35  83 E7        30.06F
HUNTINGBURG *+ CLOUDY    39  34  81 E12       30.07F

$$

INZ062-063-066-070>080-084-089>092-041500-
SOUTH CENTRAL AND SOUTHEAST INDIANA

CITY           SKY/WX    TMP DP  RH WIND       PRES   REMARKS
BLOOMINGTON    CLOUDY    37  30  75 E8        30.11F
MADISON *+     CLOUDY    37  32  81 E6        30.15F
SEYMOUR +      CLOUDY    39  32  75 E5        30.13F

$$




USA.gov is the U.S. government's official web portal to all federal, state and local government web resources and services.